Regional Weather Roundup
Issued by NWS Mt. Holly, NJ

Home | Current Version | Previous Version | Text Only | Print | Product List | Glossary On
Versions: 1 2 3 4 5 6 7 8 9 10 11 12 13 14 15 16 17 18 19 20 21 22 23 24 25 26 27 28 29 30 31 32 33 34 35 36 37 38 39 40 41 42 43 44 45 46 47 48 49 50
000
ASUS41 KPHI 070811
RWRPHI

REGIONAL WEATHER ROUNDUP
NATIONAL WEATHER SERVICE MOUNT HOLLY NJ
400 AM EDT THU MAY 07 2015

NOTE:  "FAIR" INDICATES FEW OR NO CLOUDS BELOW 12,000 FEET WITH NO
SIGNIFICANT WEATHER AND/OR OBSTRUCTIONS TO VISIBILITY.

 * = STATION DOES NOT REPORT PRECIPITATION (E.G. RAIN, SNOW, ETC.)
        OR FOG.

NJZ015>026-070900-
SOUTHERN NEW JERSEY

CITY           SKY/WX    TMP DP  RH WIND       PRES   REMARKS
POMONA         MOCLDY    53  50  89 N5        30.20S
RIO GRANDE*    CLOUDY    55  48  76 NE6       30.20S
MILLVILLE      MOCLDY    55  51  86 CALM      30.20S
WRIGHTSTOWN    MOCLDY    51  50  97 CALM      30.19S
MOUNT HOLLY    PTCLDY    50  49  96 CALM      30.21F FOG
TRENTON        CLOUDY    54  48  80 N5        30.21S

$$
NJZ001>014-070900-
NORTHERN NEW JERSEY

CITY           SKY/WX    TMP DP  RH WIND       PRES   REMARKS
SUSSEX         CLEAR     44  41  89 CALM      30.22F
ANDOVER*         N/A     47  46  97 CALM      30.22S
MORRISTOWN     FOG       45  43  93 CALM      30.21F VSB 1/2
NEWARK         CLEAR     56  48  74 NE3       30.21S
TETERBORO      CLEAR     52  46  80 CALM      30.20F
CALDWELL       CLEAR     48  45  89 CALM      30.22F
SOMERVILLE     CLEAR     47  44  90 CALM      30.20F
ALLAIRE*       CLEAR     50  43  76 CALM      30.20F
TOMS RIVER*    CLEAR     45  41  87 CALM      30.21S

$$
PAZ043-044-047-054-055-060>062-066>071-070900-
EASTERN PENNSYLVANIA

CITY           SKY/WX    TMP DP  RH WIND       PRES   REMARKS
PHILADELPHIA   CLOUDY    58  51  78 NE3       30.22S
NORTH PHILA    MOCLDY    56  47  71 CALM      30.23S
BLUE BELL      MOCLDY    54  52  94 CALM      30.21S
DOYLESTOWN     CLOUDY    52  48  86 CALM      30.21S
QUAKERTOWN*    MOCLDY    52  50  93 CALM      30.23S
POTTSTOWN      CLOUDY    56  50  80 CALM      30.23S
LANCASTER      CLOUDY    58  52  80 CALM      30.20F
COATESVILLE    CLOUDY    57  50  77 CALM      30.22S
READING        CLOUDY    58  51  78 N3        30.21S
ALLENTOWN      CLOUDY    55  50  83 CALM      30.22F
MOUNT POCONO   CLOUDY    50  46  86 CALM      30.22F
HAZLETON       CLOUDY    55  46  71 CALM      30.25S
WILKES BARRE   CLOUDY    55  46  71 CALM      30.21F

$$
DEZALL-MDZ008-012-015-019-020-070900-
DELAWARE AND EASTERN MARYLAND

CITY           SKY/WX    TMP DP  RH WIND       PRES   REMARKS
WILMINGTON     CLOUDY    60  51  72 NE6       30.21S
DOVER          PTCLDY    56  56 100 CALM      30.16S
GEORGETOWN     PTCLDY    53  51  93 NE3       30.20R
EASTON         PTCLDY    57  54  90 E5        30.22R
PATUXENT       PTCLDY    60  57  89 SE9       30.16F
OCEAN CITY     PTCLDY    53  51  93 NE6       30.19S
WALLOPS ISLAND PTCLDY    56  54  93 E5        30.18F
CAMBRIDGE      PTCLDY    55  52  88 E3        30.17F
SALISBURY      PTCLDY    53  51  93 CALM      30.18S

$$
PAZ001-021-NYZ056-072-MDZ011-DCZ001-070900-
OTHER NEARBY LOCATIONS

CITY           SKY/WX    TMP DP  RH WIND       PRES   REMARKS
HARRISBURG     CLOUDY    60  52  74 CALM      30.20S
STATE COLLEGE  FOG       52  52  99 CALM      30.20S VSB<1/4
WILLIAMSPORT   CLOUDY    54  52  93 CALM      30.20F
BINGHAMTON     CLEAR     52  47  83 E3        30.21F
NEW YORK CITY  CLEAR     58  45  62 W3        30.23F
BALTIMORE      PTCLDY    59  52  77 E6        30.18S
WASHINGTON DC  PTCLDY    64  54  69 NE7       30.18F

$$



USA.gov is the U.S. government's official web portal to all federal, state and local government web resources and services.